This is the latest recevied weather packets stored in our database for station/object OE5ERN-10. If no packets are shown the sender has not sent any weather packets the latest 10 day(s).
| Time | Temp. | Humidity | Pressure | Rain* | Wind** | Luminosity | Snow |
|---|---|---|---|---|---|---|---|
| 1777655440 | 23.33° C | 30% | 1028.9 hPa | 0 mm | - | - | - |
| 1777654540 | 22.78° C | 29% | 1029 hPa | 0 mm | - | - | - |
| 1777653640 | 21.67° C | 30% | 1029.1 hPa | 0 mm | - | - | - |
| 1777652740 | 22.78° C | 30% | 1029.1 hPa | 0 mm | - | - | - |
| 1777651840 | 21.67° C | 30% | 1029.2 hPa | 0 mm | - | - | - |
| 1777650941 | 21.67° C | 31% | 1029.3 hPa | 0 mm | - | - | - |
| 1777650040 | 22.22° C | 29% | 1029.4 hPa | 0 mm | - | - | - |
| 1777649141 | 22.78° C | 29% | 1029.6 hPa | 0 mm | - | - | - |
| 1777648241 | 22.78° C | 29% | 1029.7 hPa | 0 mm | - | - | - |
| 1777647341 | 22.78° C | 29% | 1029.8 hPa | 0 mm | - | - | - |
| 1777646441 | 22.22° C | 30% | 1029.9 hPa | 0 mm | - | - | - |
| 1777645541 | 22.22° C | 29% | 1030 hPa | 0 mm | - | - | - |
| 1777644641 | 21.67° C | 30% | 1030.3 hPa | 0 mm | - | - | - |
| 1777643741 | 22.22° C | 29% | 1030.4 hPa | 0 mm | - | - | - |
| 1777642841 | 22.22° C | 29% | 1030.5 hPa | 0 mm | - | - | - |
| 1777641941 | 22.22° C | 29% | 1030.5 hPa | 0 mm | - | - | - |
| 1777641041 | 21.67° C | 30% | 1030.8 hPa | 0 mm | - | - | - |
| 1777640141 | 21.11° C | 30% | 1031 hPa | 0 mm | - | - | - |
| 1777639241 | 21.11° C | 29% | 1031 hPa | 0 mm | - | - | - |
| 1777638341 | 21.67° C | 28% | 1031.2 hPa | 0 mm | - | - | - |
| 1777637441 | 22.22° C | 28% | 1031.4 hPa | 0 mm | - | - | - |
| 1777636541 | 23.33° C | 25% | 1031.5 hPa | 0 mm | - | - | - |
| 1777635641 | 22.78° C | 27% | 1031.8 hPa | 0 mm | - | - | - |
| 1777634741 | 21.67° C | 27% | 1032 hPa | 0 mm | - | - | - |
| 1777633841 | 22.22° C | 25% | 1032.2 hPa | 0 mm | - | - | - |
* Rain latest hour (hover to see other rain measurements)
** Current wind speed in m/s (hover to see current wind gust speed)